{"data":{"norad_id":66841,"intl_designator":"2025-280W","name":"STARLINK-35715","alt_names":[],"object_type":"PAYLOAD","status":"ACTIVE","operator":null,"country":"US","launch_date":"2025-12-02","launch_site_code":"AFWTR","launch_vehicle":null,"mission":null,"orbit_class":"UNKNOWN","rcs_meters":null,"size_class":null,"mass_kg":null,"dimensions":null,"purposes":["comms"],"wikipedia_slug":null,"has_3d_model":false,"image_url":null,"decayed_at":null,"tle_current":{"epoch":"2026-09-20T05:40:30.163008Z","epoch_age_seconds":107250,"freshness":"FRESH","line1":"1 66841U 25280W   26263.23646022  .00003297  00000+0  28395-3 0  9996","line2":"2 66841  70.0007 204.0725 0003080 269.1779  90.9027 14.98337218 45218","mean_motion":14.98337218,"eccentricity":0.000308,"inclination_deg":70.0007,"raan_deg":204.0725,"arg_perigee_deg":269.1779,"mean_anomaly_deg":90.9027,"bstar":0.00028395,"rev_number":4521,"period_min":96.10653614559,"perigee_km":569.89291742889,"apogee_km":574.17422249999,"semimajor_km":6950.1705699644,"source":"CELESTRAK","updated_at":"2026-09-21T09:00:36.023827Z"}}}